This is the latest recevied weather packets stored in our database for station/object W9LRT-WX. If no packets are shown the sender has not sent any weather packets the latest 1 day(s).
| Time | Temp. | Humidity | Pressure | Rain* | Wind** | Luminosity | Snow |
|---|---|---|---|---|---|---|---|
| 1836274302 | 22.78° C | 77% | 1019.8 hPa | 0 mm | 2.68 m/s, 110° | 0 W/m² | - |
| 1836274162 | 22.78° C | 77% | 1019.7 hPa | 0 mm | 1.79 m/s, 135° | 0 W/m² | - |
| 1778036792 | 8.89° C | 86% | 1008.3 hPa | 0 mm | 0 m/s | 0 W/m² | - |
| 1778035891 | 8.89° C | 86% | 1008.2 hPa | 0 mm | 0 m/s | 0 W/m² | - |
| 1778034991 | 8.89° C | 85% | 1008.2 hPa | 0 mm | 0 m/s | 0 W/m² | - |
| 1778034089 | 8.89° C | 84% | 1008.2 hPa | 0 mm | 0 m/s | 0 W/m² | - |
| 1778033189 | 8.89° C | 84% | 1008 hPa | 0 mm | 0 m/s | 0 W/m² | - |
| 1778032288 | 9.44° C | 84% | 1008 hPa | 0 mm | 0 m/s | 0 W/m² | - |
| 1778031389 | 9.44° C | 82% | 1007.7 hPa | 0 mm | 0 m/s | 0 W/m² | - |
| 1778030489 | 9.44° C | 79% | 1007.5 hPa | 0 mm | 0 m/s | 0 W/m² | - |
| 1778029589 | 9.44° C | 80% | 1007.5 hPa | 0 mm | 0 m/s | 0 W/m² | - |
| 1778028689 | 9.44° C | 73% | 1007.3 hPa | 0 mm | 0 m/s | 0 W/m² | - |
| 1778027791 | 9.44° C | 73% | 1007.1 hPa | 0 mm | 0 m/s | 0 W/m² | - |
| 1778026890 | 10° C | 72% | 1007 hPa | 0 mm | 0 m/s | 5 W/m² | - |
| 1778025991 | 10° C | 71% | 1007 hPa | 0 mm | 0 m/s | 14 W/m² | - |
| 1778025091 | 10° C | 69% | 1006.9 hPa | 0 mm | 0.45 m/s, 31° | 25 W/m² | - |
| 1778024189 | 10° C | 68% | 1007 hPa | 0 mm | 0.89 m/s, 30° | 54 W/m² | - |
| 1778023288 | 10° C | 68% | 1007.1 hPa | 0 mm | 0.89 m/s, 35° | 46 W/m² | - |
| 1778022392 | 10° C | 68% | 1007.4 hPa | 0 mm | 0.89 m/s, 30° | 47 W/m² | - |
| 1778021492 | 10.56° C | 64% | 1007.7 hPa | 0 mm | 0.89 m/s, 15° | 49 W/m² | - |
| 1778020589 | 11.11° C | 60% | 1007.8 hPa | 0 mm | 0.45 m/s, 9° | 49 W/m² | - |
| 1778019690 | 11.11° C | 58% | 1007.6 hPa | 0 mm | 0.45 m/s, 0° | 39 W/m² | - |
| 1778018789 | 11.11° C | 58% | 1007.6 hPa | 0 mm | 0.45 m/s, 9° | 42 W/m² | - |
| 1778017890 | 11.67° C | 56% | 1007.6 hPa | 0 mm | 1.34 m/s, 10° | 58 W/m² | - |
| 1778016989 | 11.67° C | 54% | 1007.5 hPa | 0 mm | 1.34 m/s, 15° | 113 W/m² | - |
* Rain latest hour (hover to see other rain measurements)
** Current wind speed in m/s (hover to see current wind gust speed)